Tracking 19706 objects as of 17-Jun-2019
HD Live streaming from Space Station
objects crossing your sky now

ARIANE 42L+3 R/B

Track ARIANE 42L+3 R/B now!


NORAD ID: 23637
Int'l Code: 1995-040B
Perigee: 647.6 km
Apogee: 36,755.8 km
Inclination: 3.9 °
Period: 658.5 minutes
Semi major axis: 25072 km
RCS: 21.0891 m2 (large)
Launch date: August 3, 1995
Source: France (FR)
Launch site: FRENCH GUIANA (FRGUI)

Note: This is a ROCKET BODY
aabbcc
Your satellite tracking list
Your tracking list is empty




NASA's NSSDC Master Catalog

Two Line Element Set (TLE):
1 23637U 95040B   19167.70184747 -.00000052 +00000-0 +11574-2 0  9999
2 23637 003.9173 184.5737 7200686 332.4201 269.5065 02.18675888190595
Source of the keplerian elements: AFSPC